Simultaneous Nadir Overpasses (SNOs) Predictions

Prediction of SNOs between AQUA and NOAA-19 Satellite Orbit:

Table of predicted SNOs for the next 14.0 days since TLE Epoch: 7/16/2022
Index Date (AQUA) Time (AQUA) Lat,Lon (AQUA) SZA (AQUA ) Date (NOAA-19) Time (NOAA-19) Lat,Lon (NOAA-19) SZA (NOAA-19 ) Distance(km) Time Diff (sec)
1 07/16/2022 04:43:25 77.50, 93.37 56.70 07/16/2022 04:43:31 77.52, 93.39 56.71 1.87 6
2 07/18/2022 10:16:39 -77.49,-169.86 122.94 07/18/2022 10:16:26 -77.48,-169.93 122.94 1.62 13
3 07/18/2022 11:06:09 77.67, -3.01 57.30 07/18/2022 11:07:19 77.70, -1.55 57.20 34.94 70
4 07/20/2022 15:49:53 77.46, -73.06 57.44 07/20/2022 15:49:18 77.49, -73.04 57.48 3.32 35
5 07/20/2022 16:39:20 -77.53, 94.28 122.47 07/20/2022 16:40:18 -77.53, 94.41 122.50 3.07 58
6 07/22/2022 21:23:07 -77.47, 23.61 122.12 07/22/2022 21:22:14 -77.46, 23.64 122.12 1.58 53
7 07/22/2022 22:12:34 77.48,-168.81 57.91 07/22/2022 22:13:11 77.51,-168.86 57.93 2.73 37
8 07/25/2022 02:56:21 77.44, 120.44 58.31 07/25/2022 02:55:08 77.36, 120.03 58.29 12.96 73
9 07/25/2022 03:45:48 -77.50, -72.19 121.61 07/25/2022 03:46:07 -77.49, -72.08 121.63 2.86 19
10 07/27/2022 09:19:02 77.49, 24.57 58.87 07/27/2022 09:18:59 77.45, 24.56 58.84 4.64 3
11 07/29/2022 14:52:14 -77.44, 121.47 120.67 07/29/2022 14:51:55 -77.47, 121.52 120.64 3.53 19



Historial Predications of SNOs between AQUA and NOAA-19
